COSMOS 2251 DEB

Satellite information

Favourite Embed

Satellite Type and Status

DEBRISIN ORBIT

Key statistics

Satellite COSMOS 2251 DEB at a glance.

Uptime

11709

Days in orbit

Revolutions

≈ 14.8

Per day

Orbit

LEO

Low Earth Orbit

Inclination

74.0

Latest

Satellite identification and parameters

Extended collection of information and parameters for COSMOS 2251 DEB.

Object identification

Identified? True

Debris? True

Object name: COSMOS 2251 DEB

International designator: 1993-036BVX

Object number (NORAD): 40794

Object ID (CCSDS): 40794

Country: COMMONWEALTH OF INDEPENDENT STATES (CIS)

Current information (Y/N): Y

RCS size: SMALL

Orbital parameters

Period: 97.198 minutes

Inclination: 73.9805 deg

SMA: 7002.692 km

Apoapsis: 639.668 km

Periapsis: 609.446 km

RAAN: 86.1602 deg

Eccentricy: 0.0021579

Argument of periapsis: 233.2981 deg

Mean anomaly: 303.9569 deg

Mean motion: 14.81512291 rev/day

Mean motion (dot): 0.00015109 rev/day2

B* drag term: 0.0019188 1/REarth

Two-line elements (TLE)

Creation date: July 6, 2025, 6:36 a.m.

Reference frame: TEME

Reference center: EARTH

Epoch: July 4, 2025, 11:08 a.m. UTC

TLE line 0: 0 COSMOS 2251 DEB

TLE line 1: 1 40794U 93036BVX 25185.46410383 .00015109 00000-0 19188-2 0 9990

TLE line 2: 2 40794 73.9805 86.1602 0021579 233.2981 303.9569 14.81512291595281

Live tracking on map

Real-time ground track for satellite COSMOS 2251 DEB.

In-orbit conjunctions

A list of the most updated potential collisions computed for object COSMOS 2251 DEB.

Target Orbit TCA Probability of collision Miss distance Type
CZ-6A DEB LEO 2024-12-02 07:44:14 0.0001095197 455.0 (m) DEBRIS

Associated space launch

Military communications satellite. Destroyed in a collision with Iridium 33.

COSMOS 2251 DEB was lifted into orbit during the mission ‘Kosmos-3M | Strela-2M 51’, on board a Kosmos-3M space rocket.

The launch took place on June 16, 1993, 4:17 a.m. from 132/1 (132L).

For more information about the launch, click the button.

Launch to space Kosmos-3M | Strela-2M 51
Kosmos-3M | Strela-2M 51

Agency: N/A

Status: Launch Successful

Launch date: June 16, 1993, 4:17 a.m. UTC

Rocket: Kosmos-3M

Launch pad: 132/1 (132L)

Location: Plesetsk Cosmodrome, Russian Federation

...

Latest news about this satellite

There are no fresh news available about this satellite. Check back as we update our databases every day.


Newsletter sign-up

Weekly statistics, charts and insights to help you stay on top of the space industry.